Weather History for Vero Beach, FL

Change the Weather History Date:

Wednesday, April 16, 2014

  Actual Average Record
Temperature  
Mean Temperature 70 °F 71 °F  
Max Temperature 76 °F 81 °F 92 °F (1944)
Min Temperature 63 °F 61 °F 47 °F (1950)
Degree Days  
Heating Degree Days 0 0  
Month to date heating degree days 5 13  
Since 1 July heating degree days 268 453  
Cooling Degree Days 5 6  
Month to date cooling degree days 107 89  
Year to date cooling degree days 435 357  
Growing Degree Days 19 (Base 50)    
Moisture  
Dew Point 63 °F    
Average Humidity 79    
Maximum Humidity 93    
Minimum Humidity 64    
Precipitation  
Precipitation T in 0.09 in 2.46 in (1997)
Month to date precipitation 0.68 1.53  
Year to date precipitation 9.18 10.82  
Sea Level Pressure  
Sea Level Pressure 30.04 in    
Wind  
Wind Speed 14 mph (North)    
Max Wind Speed 21 mph    
Max Gust Speed 26 mph    
Visibility 10 miles    
Events Rain    
T = Trace of Precipitation, MM = Missing Value Source: NWS Daily Summary

Daily Weather History Graph

Daily Weather History Graph

Search for Another Location

Airport:

Trip Planner

Search our weather history database for the weather conditions in past years. The results will help you decide how hot, cold, wet, or windy it might be!

Date:

Astronomy

Apr. 16, 2014 Rise Set
Actual Time 6:56 AM EDT 7:47 PM EDT
Civil Twilight 6:32 AM EDT 8:11 PM EDT
Nautical Twilight 6:03 AM EDT 8:39 PM EDT
Astronomical Twilight 5:34 AM EDT 9:08 PM EDT
Moon 9:21 PM EDT (4/16) 7:47 AM EDT (4/16)
Length of Visible Light 13h 39m
Length of Day
12h 51m
Full, 98% of the Moon is Illuminated
Apr 16
Full
Apr 22
Last Quarter
Apr 29
New
May 6
First Quarter
May 14
Full

Hourly Weather History & Observations

Time (EDT) Temp. Dew Point Humidity Pressure Visibility Wind Dir Wind Speed Gust Speed Precip Events Conditions
12:28 AM 73.0 °F 69.1 °F 87% 29.94 in 10.0 mi WNW 9.2 mph - N/A   Scattered Clouds
12:53 AM 72.0 °F 68.0 °F 87% 29.93 in 10.0 mi WNW 10.4 mph - N/A   Scattered Clouds
1:04 AM 72.0 °F 68.0 °F 87% 29.93 in 10.0 mi NW 10.4 mph - N/A   Mostly Cloudy
1:53 AM 71.1 °F 66.9 °F 87% 29.94 in 10.0 mi NW 8.1 mph - N/A   Overcast
2:53 AM 70.0 °F 66.0 °F 87% 29.94 in 10.0 mi NW 8.1 mph - N/A   Scattered Clouds
3:39 AM 70.0 °F 66.0 °F 87% 29.96 in 10.0 mi NNW 8.1 mph - N/A   Overcast
3:53 AM 70.0 °F 64.9 °F 84% 29.96 in 10.0 mi NNW 10.4 mph - N/A   Overcast
4:17 AM 68.0 °F 64.9 °F 90% 29.97 in 5.0 mi North 11.5 mph 21.9 mph 0.00 in Rain Light Rain
4:53 AM 64.9 °F 63.0 °F 93% 29.98 in 5.0 mi North 15.0 mph 25.3 mph 0.00 in   Overcast
5:43 AM 63.0 °F 60.1 °F 90% 30.00 in 10.0 mi North 17.3 mph 21.9 mph N/A   Overcast
5:53 AM 64.0 °F 60.1 °F 87% 30.00 in 10.0 mi North 12.7 mph 21.9 mph N/A   Overcast
6:53 AM 64.0 °F 57.9 °F 80% 30.01 in 10.0 mi North 16.1 mph 23.0 mph N/A   Overcast
7:53 AM 63.0 °F 55.9 °F 78% 30.05 in 10.0 mi North 16.1 mph 24.2 mph N/A   Overcast
8:53 AM 64.0 °F 55.9 °F 75% 30.06 in 10.0 mi North 17.3 mph 23.0 mph N/A   Overcast
9:53 AM 66.0 °F 57.0 °F 73% 30.08 in 10.0 mi North 13.8 mph - N/A   Overcast
10:53 AM 68.0 °F 59.0 °F 73% 30.10 in 10.0 mi North 12.7 mph 19.6 mph N/A   Overcast
11:53 AM 71.1 °F 61.0 °F 70% 30.11 in 10.0 mi NNE 15.0 mph 21.9 mph N/A   Overcast
12:53 PM 73.0 °F 62.1 °F 68% 30.10 in 10.0 mi NNE 15.0 mph - N/A   Overcast
1:53 PM 73.9 °F 62.1 °F 66% 30.09 in 10.0 mi NNE 12.7 mph 20.7 mph N/A   Overcast
2:53 PM 75.0 °F 63.0 °F 66% 30.08 in 10.0 mi NNE 13.8 mph 21.9 mph N/A   Overcast
3:53 PM 73.0 °F 64.9 °F 76% 30.06 in 9.0 mi NE 15.0 mph 21.9 mph 0.00 in Rain Light Rain
4:53 PM 73.0 °F 63.0 °F 71% 30.06 in 10.0 mi NE 17.3 mph 25.3 mph 0.00 in   Overcast
5:53 PM 72.0 °F 63.0 °F 73% 30.07 in 10.0 mi NNE 17.3 mph 24.2 mph N/A   Overcast
6:53 PM 72.0 °F 63.0 °F 73% 30.07 in 10.0 mi ENE 16.1 mph 21.9 mph N/A   Overcast
7:53 PM 72.0 °F 63.0 °F 73% 30.09 in 10.0 mi NE 11.5 mph - N/A   Mostly Cloudy
8:53 PM 72.0 °F 64.9 °F 78% 30.11 in 10.0 mi NE 13.8 mph - N/A   Overcast
9:53 PM 72.0 °F 64.9 °F 78% 30.12 in 10.0 mi NE 15.0 mph 21.9 mph N/A   Overcast
10:53 PM 72.0 °F 64.9 °F 78% 30.12 in 10.0 mi NE 15.0 mph 23.0 mph N/A   Overcast
11:53 PM 73.0 °F 64.9 °F 76% 30.12 in 10.0 mi NE 15.0 mph 23.0 mph N/A   Overcast